レモン-ヨン-パンスターズ彗星

C/2015 VL62 ( Lemmon-Yeung-PanSTARRS )

English version
Home page
Updated on August 31, 2019

---------------------------------------------------------------------

・ プロフィール

発見日 2015年11月2日、12月18日、2016年1月23日
発見光度 20.7等、19.1等、19.8等
発見者 R. G. Matheny and E. J. Christensen (Mount Lemmon), W. K. Y. Yeung (near Mayhill, NM, USA), Pan-STARRS 1 telescope (Haleakala)

・ 写真集

・ 軌道要素

Epoch 2017 Sept. 4.0 TT = JDT 2458000.5
T 2017 Aug. 28.59757 TT                                 Williams
q   2.7203003            (2000.0)            P               Q
z  -0.0006723      Peri.  128.36385     +0.80634777     -0.53708639
 +/-0.0000003      Node    94.55068     -0.58984729     -0.69954023
e   1.0018289      Incl.  165.61387     -0.04339877     -0.47136152
From 1971 observations 2015 Nov. 2-2018 July 15, mean residual 0".5.

・ 星図

・ 光度変化

        m1 = 7.7 + 5 logΔ + 11.0 log r(t + 150)

---------------------------------------------------------------------

軌道要素はM.P.E.C. 2019-Q135に掲載されたものです。
星図はステラナビゲータ Ver.10 (アストロアーツ) で作成したものです。
光度グラフはComet for Windowsで作成したものです。

---------------------------------------------------------------------

Copyright(C) Seiichi Yoshida (comet@aerith.net). All rights reserved.